Flag for Reunion (French) Weather past 2 weeks in Saint-Denis, Reunion (French)

Now
77 °F

Scattered clouds.


Feels Like: 79 °F
Forecast: 65 / 75 °F
Wind: 26 mph from Southeast

Location: Saint-Denis / Gillot

Current Time: Jul 30, 2014 at 11:42:08 AM

Latest Report: Jul 30, 2014 at 11:00 AM


Visibility: N/A

Pressure: 30.18 "Hg

Humidity: 61%

Dew point: 63 °F

Location of Saint-DenisLocation

Historic Weather in Saint-Denis — Graph

°F

Saint-Denis temperature yesterday

Maximum temperature yesterday: 79 °F (at 11:00 AM)
Minimum temperature yesterday: 64 °F (at 4:00 AM)
Average temperature yesterday: 72 °F

Past Weeks' High & Low Weather Summary

 TemperatureHumidityPressure
High81 °F (Jul 19, 12:30 PM)94% (Jul 22, 6:30 PM)30.30 "Hg (Jul 22, 6:30 PM)
Low63 °F (Jul 16, 1:30 AM)51% (Jul 21, 11:00 AM)30.07 "Hg (Jul 23, 5:00 AM)
Average73 °F73%30.17 "Hg
* Reported Jul 15 10:00 AM — Jul 30 10:30 AM, Saint-Denis, Weather by CustomWeather, © 2014

Note: Actual official high and low records may vary slightly from our data, if they occured in-between our weather recording intervals... More about our weather records

Advertising

Saint-Denis weather history for previous 24 hours

 ConditionsComfort  
Time TempWeatherWind HumidityBarometerVisibility
10:30 AM
Jul 30
77 °FPassing clouds.24 mph61%30.21 "HgN/A
10:00 AM77 °FPassing clouds.20 mph61%30.21 "HgN/A
9:30 AM77 °FPassing clouds.9 mph57%30.18 "HgN/A
9:00 AM77 °FPassing clouds.2 mph57%30.18 "HgN/A
8:30 AM73 °FPassing clouds.2 mph65%30.18 "HgN/A
8:00 AM70 °FPassing clouds.2 mph73%30.18 "HgN/A
7:34 AM66 °FPassing clouds.3 mph83%30.18 "HgN/A
7:00 AM64 °FPassing clouds.6 mph83%30.15 "HgN/A
6:30 AM64 °FPassing clouds.3 mph83%30.15 "HgN/A
6:00 AM64 °FPassing clouds.8 mph83%30.15 "HgN/A
5:30 AM66 °FPassing clouds.3 mph78%30.12 "HgN/A
5:00 AM66 °FPassing clouds.3 mph78%30.12 "HgN/A
4:30 AM66 °FPassing clouds.3 mph83%30.15 "HgN/A
4:00 AM68 °FPassing clouds.7 mph78%30.15 "HgN/A
3:30 AM66 °FPassing clouds.8 mph78%30.15 "HgN/A
3:00 AM66 °FClear.8 mph83%30.15 "HgN/A
2:30 AM66 °FClear.6 mph83%30.15 "HgN/A
2:00 AM66 °FPassing clouds.7 mph83%30.15 "HgN/A
1:30 AM68 °FPassing clouds.7 mph78%30.15 "HgN/A
1:00 AM68 °FClear.8 mph73%30.18 "HgN/A
12:30 AM68 °FClear.6 mph78%30.18 "HgN/A
12:00 AM68 °FClear.6 mph78%30.18 "HgN/A
11:30 PM
Jul 29
68 °FClear.6 mph78%30.18 "HgN/A
11:00 PM66 °FPassing clouds.5 mph83%30.18 "HgN/A
10:30 PM66 °FPassing clouds.7 mph83%30.18 "HgN/A
10:00 PM68 °FPassing clouds.6 mph78%30.18 "HgN/A
9:30 PM70 °FPassing clouds.6 mph73%30.18 "HgN/A
9:00 PM70 °FPassing clouds.8 mph73%30.18 "HgN/A
8:30 PM70 °FPassing clouds.6 mph73%30.18 "HgN/A
8:00 PM70 °FPassing clouds.6 mph78%30.18 "HgN/A
7:30 PM70 °FPassing clouds.7 mph78%30.18 "HgN/A
7:00 PM72 °FPassing clouds.7 mph73%30.18 "HgN/A
6:00 PM73 °FPassing clouds.8 mph74%30.15 "HgN/A
5:30 PM75 °FPassing clouds.10 mph69%30.15 "HgN/A
5:00 PM75 °FPassing clouds.12 mph69%30.15 "HgN/A
4:30 PM77 °FPassing clouds.13 mph69%30.12 "HgN/A
4:00 PM77 °FScattered clouds.16 mph69%30.12 "HgN/A
3:30 PM79 °FScattered clouds.10 mph70%30.12 "HgN/A
3:00 PM77 °FScattered clouds.13 mph69%30.12 "HgN/A
2:30 PM79 °FPartly sunny.9 mph65%30.12 "HgN/A
2:00 PM77 °FPartly sunny.8 mph65%30.15 "HgN/A
1:30 PM77 °FScattered clouds.7 mph74%30.15 "HgN/A
1:00 PM79 °FPassing clouds.6 mph65%30.15 "HgN/A
12:30 PM79 °FPassing clouds.5 mph70%30.15 "HgN/A
12:00 PM79 °FPassing clouds.5 mph65%30.18 "HgN/A
11:30 AM79 °FPassing clouds.6 mph70%30.18 "HgN/A
11:00 AM79 °FPassing clouds.6 mph65%30.18 "HgN/A
Weather by CustomWeather, © 2014

See weather overviewHow to use our weather pages